EZS71UA LIPR-LFSB

Flight info

Callsign EZS71UA
Flight time 1h 13m
Altitude 18000
Route PELEG DCT BOA DCT BETMU DCT OSBUL L995 PEPAG/N0434F360 N851 ABESI/N0437F380 N851 ELMUR T718 RIGVI
Aircraft A320/M-SDE2E3FGHIJ1RWXYZ/LB1

Departure

Time 2026-04-17 21:21
Airport Federico Fellini International Airport (LIPR)

Arrival

Time 2026-04-17 22:35
Airport EuroAirport Basel–Mulhouse–Freiburg (LFSB)
Time Latitude Longitude Altitude Speed Heading
2026-04-17 21:05 44.02224 12.61854 49 ft 0 kts 37°
2026-04-17 21:15 44.02221 12.61852 49 ft 3 kts 37°
2026-04-17 21:15 44.02200 12.61829 49 ft 4 kts 37°
2026-04-17 21:15 44.02178 12.61810 47 ft 4 kts
2026-04-17 21:16 44.02163 12.61814 47 ft 2 kts 308°
2026-04-17 21:16 44.02151 12.61836 49 ft 0 kts 308°
2026-04-17 21:17 44.02154 12.61830 46 ft 5 kts 308°
2026-04-17 21:18 44.02174 12.61717 47 ft 8 kts 230°
2026-04-17 21:18 44.02073 12.61607 48 ft 25 kts 230°
2026-04-17 21:18 44.02103 12.61477 48 ft 26 kts 308°
2026-04-17 21:18 44.02223 12.61262 46 ft 28 kts 307°
2026-04-17 21:19 44.02344 12.61043 46 ft 29 kts 307°
2026-04-17 21:19 44.02464 12.60827 42 ft 29 kts 309°
2026-04-17 21:19 44.02583 12.60615 43 ft 28 kts 308°
2026-04-17 21:19 44.02702 12.60403 42 ft 28 kts 308°
2026-04-17 21:20 44.02821 12.60187 41 ft 26 kts 307°
2026-04-17 21:20 44.02798 12.60053 41 ft 18 kts 224°
2026-04-17 21:20 44.02677 12.60014 41 ft 18 kts 131°
2026-04-17 21:20 44.02601 12.60149 39 ft 44 kts 126°
2026-04-17 21:21 44.02256 12.60771 45 ft 113 kts 128°
2026-04-17 21:21 44.01661 12.61841 70 ft 161 kts 129°
2026-04-17 21:21 44.00949 12.63042 658 ft 161 kts 129°
2026-04-17 21:21 44.00216 12.64224 1271 ft 164 kts 139°
2026-04-17 21:22 43.99255 12.65232 1635 ft 184 kts 142°
2026-04-17 21:22 43.98145 12.66332 1954 ft 209 kts 142°
2026-04-17 21:22 43.96936 12.67516 2551 ft 218 kts 142°
2026-04-17 21:22 43.95692 12.68726 3426 ft 218 kts 142°
2026-04-17 21:23 43.94544 12.70079 4227 ft 217 kts 122°
2026-04-17 21:23 43.94056 12.72009 4994 ft 215 kts 90°
2026-04-17 21:23 43.94391 12.74001 5762 ft 216 kts 60°
2026-04-17 21:23 43.95448 12.75466 6527 ft 220 kts 28°
2026-04-17 21:24 43.96947 12.75905 7256 ft 227 kts 356°
2026-04-17 21:24 43.98426 12.75086 7997 ft 237 kts 322°
2026-04-17 21:24 43.99237 12.73555 8606 ft 246 kts 295°
2026-04-17 21:24 43.99747 12.71264 9354 ft 249 kts 289°
2026-04-17 21:25 44.00192 12.68929 10144 ft 251 kts 289°
2026-04-17 21:25 44.00628 12.66577 10867 ft 252 kts 289°
2026-04-17 21:25 44.01064 12.64216 11606 ft 253 kts 289°
2026-04-17 21:25 44.01506 12.61848 12343 ft 254 kts 289°
2026-04-17 21:26 44.02017 12.59438 12787 ft 270 kts 291°
2026-04-17 21:26 44.02639 12.56859 13017 ft 293 kts 292°
2026-04-17 21:26 44.03337 12.54078 13220 ft 316 kts 292°
2026-04-17 21:26 44.04092 12.51095 13475 ft 336 kts 292°
2026-04-17 21:27 44.04869 12.47996 14071 ft 342 kts 291°
2026-04-17 21:27 44.05647 12.44851 14711 ft 346 kts 291°
2026-04-17 21:27 44.06426 12.41668 15357 ft 349 kts 291°
2026-04-17 21:27 44.07209 12.38449 16013 ft 353 kts 291°
2026-04-17 21:28 44.07997 12.35202 16647 ft 356 kts 291°
2026-04-17 21:28 44.08792 12.31918 17271 ft 360 kts 291°
2026-04-17 21:28 44.09193 12.30264 17591 ft 362 kts 291°
2026-04-17 21:28 44.09743 12.27987 17954 ft 370 kts 291°
2026-04-17 21:29 44.10593 12.24498 18117 ft 393 kts 291°
2026-04-17 21:29 44.11494 12.20792 18142 ft 415 kts 290°
2026-04-17 21:29 44.12433 12.16911 18139 ft 432 kts 290°
2026-04-17 21:29 44.13403 12.12883 18139 ft 445 kts 290°
2026-04-17 21:30 44.14399 12.08737 18137 ft 456 kts 290°
2026-04-17 21:30 44.15399 12.04569 18755 ft 450 kts 290°
2026-04-17 21:30 44.16381 12.00467 19465 ft 443 kts 290°
2026-04-17 21:30 44.17346 11.96426 20185 ft 436 kts 290°
2026-04-17 21:31 44.18298 11.92440 20909 ft 431 kts 290°
2026-04-17 21:31 44.19237 11.88503 21649 ft 425 kts 290°
2026-04-17 21:31 44.20163 11.84614 22403 ft 420 kts 289°
2026-04-17 21:31 44.21077 11.80772 23176 ft 415 kts 289°
2026-04-17 21:32 44.21979 11.76978 23924 ft 410 kts 289°
2026-04-17 21:32 44.22869 11.73227 24606 ft 405 kts 290°
2026-04-17 21:32 44.23747 11.69523 25304 ft 399 kts 290°
2026-04-17 21:32 44.24612 11.65871 26003 ft 394 kts 290°
2026-04-17 21:33 44.25463 11.62270 26721 ft 388 kts 290°
2026-04-17 21:33 44.26300 11.58727 27469 ft 381 kts 290°
2026-04-17 21:33 44.27121 11.55242 28234 ft 375 kts 290°
2026-04-17 21:33 44.27928 11.51810 28999 ft 368 kts 290°
2026-04-17 21:34 44.28716 11.48446 29777 ft 362 kts 291°
2026-04-17 21:34 44.29489 11.45142 30539 ft 354 kts 291°
2026-04-17 21:34 44.30974 11.38758 31840 ft 337 kts 290°
2026-04-17 21:35 44.31674 11.35728 32490 ft 327 kts 290°
2026-04-17 21:35 44.32357 11.32754 33135 ft 316 kts 290°
2026-04-17 21:35 44.33023 11.29837 33769 ft 305 kts 290°
2026-04-17 21:35 44.33651 11.27071 34331 ft 293 kts 290°
2026-04-17 21:36 44.34257 11.24381 34682 ft 290 kts 290°
2026-04-17 21:36 44.34875 11.21651 34554 ft 301 kts 290°
2026-04-17 21:36 44.35523 11.18806 34442 ft 310 kts 290°
2026-04-17 21:36 44.36175 11.15949 34707 ft 305 kts 290°
2026-04-17 21:37 44.36805 11.13170 35122 ft 296 kts 290°
2026-04-17 21:37 44.37425 11.10433 35260 ft 298 kts 290°
2026-04-17 21:37 44.38062 11.07625 35124 ft 308 kts 290°
2026-04-17 21:38 44.39375 11.01873 35457 ft 306 kts 290°
2026-04-17 21:38 44.40002 10.99108 35795 ft 300 kts 290°
2026-04-17 21:38 44.40637 10.96312 35825 ft 305 kts 290°
2026-04-17 21:38 44.41290 10.93447 35699 ft 314 kts 290°
2026-04-17 21:39 44.41968 10.90485 35791 ft 315 kts 290°
2026-04-17 21:39 44.42625 10.87604 36123 ft 307 kts 290°
2026-04-17 21:39 44.43268 10.84775 36369 ft 305 kts 290°
2026-04-17 21:40 44.44584 10.79006 36225 ft 318 kts 290°
2026-04-17 21:40 44.45259 10.76062 36404 ft 316 kts 290°
2026-04-17 21:40 44.45921 10.73161 36741 ft 310 kts 290°
2026-04-17 21:40 44.46573 10.70302 36898 ft 309 kts 290°
2026-04-17 21:41 44.47234 10.67406 36817 ft 316 kts 290°
2026-04-17 21:41 44.48583 10.61518 36960 ft 318 kts 290°
2026-04-17 21:41 44.49258 10.58565 37246 ft 312 kts 290°
2026-04-17 21:42 44.49920 10.55670 37292 ft 313 kts 290°
2026-04-17 21:42 44.51268 10.49788 37212 ft 323 kts 290°
2026-04-17 21:42 44.51951 10.46811 37418 ft 319 kts 290°
2026-04-17 21:43 44.52624 10.43872 37671 ft 315 kts 290°
2026-04-17 21:43 44.53972 10.37991 37604 ft 322 kts 290°
2026-04-17 21:44 44.55352 10.31990 37834 ft 321 kts 290°
2026-04-17 21:44 44.56031 10.29032 38033 ft 317 kts 290°
2026-04-17 21:44 44.56708 10.26081 38026 ft 320 kts 290°
2026-04-17 21:45 44.58095 10.20055 37970 ft 326 kts 290°
2026-04-17 21:45 44.58786 10.17052 38231 ft 321 kts 290°
2026-04-17 21:45 44.59466 10.14090 38422 ft 318 kts 290°
2026-04-17 21:46 44.60842 10.08111 38281 ft 327 kts 290°
2026-04-17 21:46 44.62242 10.02042 38607 ft 323 kts 290°
2026-04-17 21:46 44.62928 9.99061 38776 ft 320 kts 290°
2026-04-17 21:47 44.63616 9.96070 38730 ft 324 kts 290°
2026-04-17 21:47 44.64317 9.93035 38624 ft 329 kts 290°
2026-04-17 21:47 44.65024 9.89974 38709 ft 329 kts 290°
2026-04-17 21:47 44.65724 9.86937 38911 ft 324 kts 290°
2026-04-17 21:48 44.66417 9.83933 38997 ft 324 kts 290°
2026-04-17 21:48 44.67825 9.77834 38855 ft 332 kts 290°
2026-04-17 21:49 44.69246 9.71689 39127 ft 327 kts 290°
2026-04-17 21:49 44.70650 9.65606 39133 ft 331 kts 290°
2026-04-17 21:50 44.72087 9.59402 39174 ft 333 kts 290°
2026-04-17 21:50 44.72799 9.56326 39357 ft 329 kts 290°
2026-04-17 21:50 44.73505 9.53272 39409 ft 329 kts 290°
2026-04-17 21:51 44.74940 9.47076 39272 ft 337 kts 290°
2026-04-17 21:51 44.75664 9.43953 39385 ft 334 kts 290°
2026-04-17 21:51 44.76381 9.40861 39550 ft 331 kts 290°
2026-04-17 21:52 44.77813 9.34682 39528 ft 335 kts 290°
2026-04-17 21:52 44.79269 9.28411 39577 ft 336 kts 290°
2026-04-17 21:52 44.79992 9.25296 39720 ft 333 kts 290°
2026-04-17 21:53 44.80711 9.22197 39770 ft 333 kts 290°
2026-04-17 21:53 44.82169 9.15921 39693 ft 340 kts 290°
2026-04-17 21:53 44.82902 9.12771 39794 ft 337 kts 290°
2026-04-17 21:54 44.83627 9.09649 39942 ft 334 kts 290°
2026-04-17 21:54 44.85078 9.03405 39901 ft 339 kts 290°
2026-04-17 21:55 44.86553 8.97071 39987 ft 338 kts 290°
2026-04-17 21:55 44.87283 8.93932 40125 ft 336 kts 290°
2026-04-17 21:55 44.88011 8.90802 40153 ft 336 kts 290°
2026-04-17 21:56 44.89485 8.84469 40063 ft 342 kts 290°
2026-04-17 21:56 44.90225 8.81288 40172 ft 340 kts 290°
2026-04-17 21:56 44.90960 8.78131 40273 ft 338 kts 290°
2026-04-17 21:57 44.92430 8.71814 40211 ft 342 kts 290°
2026-04-17 21:57 44.93921 8.65418 40299 ft 341 kts 290°
2026-04-17 21:57 44.94660 8.62246 40415 ft 339 kts 290°
2026-04-17 21:58 44.95396 8.59084 40425 ft 340 kts 290°
2026-04-17 21:58 44.96888 8.52686 40341 ft 345 kts 290°
2026-04-17 21:59 44.98378 8.46295 40545 ft 340 kts 290°
2026-04-17 21:59 44.99864 8.39920 40486 ft 344 kts 290°
2026-04-17 22:00 45.01362 8.33498 40592 ft 343 kts 290°
2026-04-17 22:00 45.02953 8.27052 38872 ft 375 kts 305°
2026-04-17 22:00 45.05371 8.25242 34800 ft 468 kts 348°
2026-04-17 22:01 45.07027 8.24886 34833 ft 466 kts 349°
2026-04-17 22:01 45.10463 8.23968 35501 ft 442 kts 347°
2026-04-17 22:01 45.13470 8.23265 35527 ft 435 kts 351°
2026-04-17 22:02 45.19460 8.22633 35379 ft 432 kts 357°
2026-04-17 22:02 45.22425 8.22314 35826 ft 423 kts 348°
2026-04-17 22:02 45.25268 8.21407 36254 ft 417 kts 342°
2026-04-17 22:02 45.27107 8.20631 36463 ft 415 kts 341°
2026-04-17 22:03 45.29848 8.19392 36727 ft 414 kts 341°
2026-04-17 22:03 45.32604 8.18213 36951 ft 414 kts 343°
2026-04-17 22:03 45.35386 8.17162 37162 ft 414 kts 345°
2026-04-17 22:03 45.38190 8.16232 37374 ft 413 kts 346°
2026-04-17 22:04 45.41001 8.15389 37578 ft 413 kts 347°
2026-04-17 22:04 45.43818 8.14588 37788 ft 413 kts 347°
2026-04-17 22:04 45.46635 8.13792 37981 ft 412 kts 347°
2026-04-17 22:04 45.49445 8.12981 38140 ft 413 kts 347°
2026-04-17 22:05 45.52258 8.12146 38150 ft 413 kts 346°
2026-04-17 22:05 45.57874 8.10437 38163 ft 412 kts 346°
2026-04-17 22:06 45.63483 8.08708 38166 ft 412 kts 346°
2026-04-17 22:06 45.69090 8.06981 38173 ft 412 kts 346°
2026-04-17 22:07 45.74707 8.05256 38178 ft 413 kts 346°
2026-04-17 22:07 45.80329 8.03533 38190 ft 413 kts 346°
2026-04-17 22:08 45.85952 8.01813 38196 ft 413 kts 346°
2026-04-17 22:08 45.91573 8.00077 38206 ft 413 kts 346°
2026-04-17 22:09 45.97156 7.98338 37743 ft 404 kts 346°
2026-04-17 22:09 45.99911 7.97482 36677 ft 406 kts 347°
2026-04-17 22:09 46.02654 7.96635 36393 ft 397 kts 347°
2026-04-17 22:09 46.05314 7.95812 36165 ft 386 kts 347°
2026-04-17 22:10 46.07950 7.94997 35224 ft 391 kts 347°
2026-04-17 22:10 46.10583 7.94174 34987 ft 382 kts 347°
2026-04-17 22:10 46.13141 7.93375 34857 ft 370 kts 347°
2026-04-17 22:10 46.15629 7.92596 34652 ft 362 kts 347°
2026-04-17 22:11 46.18078 7.91830 34329 ft 358 kts 347°
2026-04-17 22:11 46.20503 7.91071 33583 ft 358 kts 347°
2026-04-17 22:11 46.22979 7.90298 32410 ft 368 kts 347°
2026-04-17 22:11 46.25483 7.89516 32048 ft 364 kts 347°
2026-04-17 22:12 46.27925 7.88754 31915 ft 354 kts 347°
2026-04-17 22:12 46.30296 7.88016 31755 ft 344 kts 347°
2026-04-17 22:12 46.32619 7.87292 31422 ft 339 kts 347°
2026-04-17 22:12 46.34907 7.86575 31058 ft 335 kts 348°
2026-04-17 22:13 46.37174 7.85863 30622 ft 334 kts 348°
2026-04-17 22:13 46.39493 7.85132 29665 ft 348 kts 348°
2026-04-17 22:13 46.41895 7.84373 29352 ft 358 kts 348°
2026-04-17 22:13 46.44334 7.83601 28961 ft 359 kts 347°
2026-04-17 22:14 46.46771 7.82828 28563 ft 358 kts 347°
2026-04-17 22:14 46.49199 7.82060 28182 ft 356 kts 347°
2026-04-17 22:14 46.51615 7.81298 27782 ft 354 kts 347°
2026-04-17 22:14 46.54016 7.80543 27389 ft 352 kts 347°
2026-04-17 22:15 46.56403 7.79790 26985 ft 350 kts 347°
2026-04-17 22:15 46.58782 7.79038 26574 ft 349 kts 347°
2026-04-17 22:15 46.61146 7.78289 26179 ft 347 kts 347°
2026-04-17 22:15 46.63500 7.77541 25753 ft 345 kts 347°
2026-04-17 22:16 46.65841 7.76798 25332 ft 344 kts 347°
2026-04-17 22:16 46.68169 7.76056 24905 ft 342 kts 346°
2026-04-17 22:16 46.70493 7.75315 24471 ft 341 kts 346°
2026-04-17 22:16 46.72811 7.74579 24028 ft 341 kts 346°
2026-04-17 22:17 46.75127 7.73844 23569 ft 341 kts 346°
2026-04-17 22:17 46.77436 7.73106 23111 ft 339 kts 346°
2026-04-17 22:17 46.79730 7.72373 22677 ft 336 kts 346°
2026-04-17 22:17 46.82011 7.71644 22238 ft 334 kts 346°
2026-04-17 22:18 46.84276 7.70920 21837 ft 332 kts 346°
2026-04-17 22:18 46.86527 7.70197 21422 ft 331 kts 346°
2026-04-17 22:18 46.88383 7.69603 21089 ft 330 kts 346°
2026-04-17 22:18 46.90619 7.68887 20737 ft 327 kts 346°
2026-04-17 22:19 46.92826 7.68181 20325 ft 326 kts 346°
2026-04-17 22:19 46.95037 7.67476 20019 ft 322 kts 346°
2026-04-17 22:19 46.97234 7.66775 19540 ft 325 kts 346°
2026-04-17 22:19 46.99414 7.66074 19340 ft 317 kts 346°
2026-04-17 22:20 47.01554 7.65386 19048 ft 314 kts 346°
2026-04-17 22:20 47.03680 7.64698 18725 ft 312 kts 346°
2026-04-17 22:20 47.05790 7.64012 18385 ft 310 kts 346°
2026-04-17 22:20 47.07889 7.63331 18012 ft 308 kts 346°
2026-04-17 22:21 47.09979 7.62655 17649 ft 307 kts 346°
2026-04-17 22:21 47.12059 7.61984 17292 ft 305 kts 346°
2026-04-17 22:21 47.14129 7.61314 16943 ft 304 kts 346°
2026-04-17 22:21 47.16191 7.60647 16594 ft 303 kts 346°
2026-04-17 22:22 47.18245 7.59983 16263 ft 301 kts 346°
2026-04-17 22:22 47.20287 7.59325 15929 ft 300 kts 346°
2026-04-17 22:22 47.22324 7.58666 15611 ft 299 kts 346°
2026-04-17 22:22 47.24347 7.58011 15292 ft 297 kts 346°
2026-04-17 22:23 47.26364 7.57357 14971 ft 296 kts 346°
2026-04-17 22:23 47.28363 7.56708 14542 ft 293 kts 346°
2026-04-17 22:23 47.30345 7.56061 13958 ft 291 kts 345°
2026-04-17 22:23 47.32313 7.55416 13350 ft 289 kts 346°
2026-04-17 22:24 47.34272 7.54775 12871 ft 289 kts 346°
2026-04-17 22:24 47.36238 7.54129 12498 ft 289 kts 346°
2026-04-17 22:24 47.38199 7.53483 12138 ft 288 kts 346°
2026-04-17 22:24 47.40153 7.52842 11772 ft 287 kts 346°
2026-04-17 22:25 47.42103 7.52207 11410 ft 287 kts 346°
2026-04-17 22:25 47.44053 7.51572 11051 ft 286 kts 346°
2026-04-17 22:25 47.45968 7.50946 10738 ft 279 kts 346°
2026-04-17 22:25 47.47850 7.50329 10324 ft 275 kts 346°
2026-04-17 22:26 47.49727 7.49714 9941 ft 277 kts 346°
2026-04-17 22:26 47.51611 7.49096 9549 ft 276 kts 346°
2026-04-17 22:26 47.53482 7.48483 9171 ft 275 kts 346°
2026-04-17 22:26 47.55344 7.47874 8788 ft 274 kts 347°
2026-04-17 22:27 47.57197 7.47263 8399 ft 272 kts 347°
2026-04-17 22:27 47.59039 7.46654 8012 ft 271 kts 347°
2026-04-17 22:27 47.60876 7.46045 7612 ft 270 kts 347°
2026-04-17 22:27 47.62710 7.45438 7190 ft 270 kts 347°
2026-04-17 22:28 47.64550 7.44828 6781 ft 267 kts 348°
2026-04-17 22:28 47.66357 7.44232 6250 ft 268 kts 348°
2026-04-17 22:28 47.68177 7.43633 5870 ft 265 kts 348°
2026-04-17 22:28 47.69975 7.43042 5412 ft 266 kts 348°
2026-04-17 22:29 47.71759 7.42451 5094 ft 261 kts 348°
2026-04-17 22:29 47.73541 7.41859 4691 ft 259 kts 348°
2026-04-17 22:29 47.75256 7.41288 4560 ft 246 kts 348°
2026-04-17 22:29 47.76902 7.40861 4426 ft 235 kts
2026-04-17 22:30 47.78361 7.41661 4294 ft 222 kts 43°
2026-04-17 22:30 47.79038 7.43600 4164 ft 211 kts 86°
2026-04-17 22:30 47.78627 7.45579 4058 ft 200 kts 132°
2026-04-17 22:30 47.77446 7.46443 3886 ft 193 kts 178°
2026-04-17 22:31 47.76100 7.46200 3639 ft 197 kts 186°
2026-04-17 22:31 47.74736 7.46017 3408 ft 193 kts 185°
2026-04-17 22:31 47.73477 7.45860 3200 ft 171 kts 185°
2026-04-17 22:31 47.72343 7.45719 3004 ft 157 kts 185°
2026-04-17 22:32 47.71279 7.45587 2830 ft 151 kts 185°
2026-04-17 22:32 47.70239 7.45649 2659 ft 149 kts 169°
2026-04-17 22:32 47.69242 7.46030 2476 ft 147 kts 161°
2026-04-17 22:32 47.68284 7.46557 2296 ft 147 kts 157°
2026-04-17 22:33 47.67345 7.47148 2099 ft 146 kts 156°
2026-04-17 22:33 47.66418 7.47766 1896 ft 146 kts 155°
2026-04-17 22:33 47.65504 7.48406 1707 ft 145 kts 154°
2026-04-17 22:33 47.64609 7.49039 1498 ft 141 kts 155°
2026-04-17 22:34 47.63720 7.49652 1344 ft 140 kts 154°
2026-04-17 22:34 47.62841 7.50244 1137 ft 137 kts 155°
2026-04-17 22:34 47.61976 7.50845 976 ft 137 kts 155°
2026-04-17 22:34 47.61144 7.51423 887 ft 120 kts 155°
2026-04-17 22:35 47.60544 7.51838 887 ft 70 kts 155°
2026-04-17 22:35 47.60244 7.52048 892 ft 34 kts 155°
2026-04-17 22:35 47.60115 7.52187 893 ft 10 kts 88°
2026-04-17 22:35 47.60155 7.52350 888 ft 23 kts 86°
2026-04-17 22:36 47.60025 7.52493 887 ft 28 kts 156°
2026-04-17 22:36 47.59849 7.52617 887 ft 28 kts 156°
2026-04-17 22:36 47.59676 7.52735 887 ft 27 kts 155°
2026-04-17 22:36 47.59504 7.52855 887 ft 28 kts 155°
2026-04-17 22:37 47.59328 7.52976 888 ft 27 kts 155°
2026-04-17 22:37 47.59154 7.53099 888 ft 28 kts 154°
2026-04-17 22:37 47.58977 7.53223 889 ft 29 kts 155°
2026-04-17 22:37 47.58803 7.53343 887 ft 28 kts 155°
2026-04-17 22:38 47.58660 7.53358 888 ft 21 kts 232°
2026-04-17 22:38 47.58587 7.53134 893 ft 25 kts 245°
2026-04-17 22:38 47.58504 7.52876 887 ft 27 kts 245°
2026-04-17 22:38 47.58503 7.52683 887 ft 15 kts 329°
2026-04-17 22:39 47.58605 7.52573 886 ft 19 kts 279°
2026-04-17 22:39 47.58593 7.52491 886 ft 1 kts 250°
2026-04-17 22:39 47.58592 7.52485 886 ft 0 kts 249°